This demonstration page uses our WeatherBlox Daily Observations layout. Learn more.

Left ArrowRight Arrow

Hourly Observations for October 22, 2016

Temp ( °F °C ) Dew Point ( °F °C ) Humidity (%) Winds ( mph kmh ) Pressure ( in mb ) Visibility ( mi km ) Precip ( " mm )
12:15 am 00:15 Clear 45 7 30 -1 57 57 Calm 30.06 1018 10 16 0.00 0.00
12:35 am 00:35 Clear 43 6 30 -1 61 61 NW 5 7 30.06 1018 10 16 0.00 0.00
12:55 am 00:55 Clear 43 6 30 -1 61 61 NW 5 7 30.06 1018 10 16 0.00 0.00
1:15 am 01:15 Clear 43 6 30 -1 61 61 NW 3 6 30.06 1018 10 16 0.00 0.00
1:35 am 01:35 Clear 43 6 30 -1 61 61 NW 8 13 30.06 1018 10 16 0.00 0.00
1:55 am 01:55 Clear 43 6 30 -1 61 61 WNW 8 13 30.06 1018 10 16 0.00 0.00
2:35 am 02:35 Clear 41 5 30 -1 66 66 Calm 30.06 1018 10 16 0.00 0.00
2:55 am 02:55 Clear 39 4 28 -2 65 65 Calm 30.09 1019 10 16 0.00 0.00
3:15 am 03:15 Clear 41 5 28 -2 61 61 Calm 30.06 1018 10 16 0.00 0.00
3:35 am 03:35 Clear 41 5 28 -2 61 61 Calm 30.06 1018 10 16 0.00 0.00
3:55 am 03:55 Clear 39 4 28 -2 65 65 WNW 3 6 30.09 1019 10 16 0.00 0.00
4:15 am 04:15 Clear 39 4 28 -2 65 65 Calm 30.09 1019 10 16 0.00 0.00
4:35 am 04:35 Clear 39 4 28 -2 65 65 NNW 5 7 30.09 1019 10 16 0.00 0.00
4:55 am 04:55 Clear 39 4 30 -1 70 70 NW 6 9 30.09 1019 10 16 0.00 0.00
5:15 am 05:15 Clear 39 4 28 -2 65 65 Calm 30.09 1019 10 16 0.00 0.00
5:35 am 05:35 Clear 37 3 28 -2 70 70 NW 6 9 30.09 1019 10 16 0.00 0.00
5:55 am 05:55 Clear 37 3 28 -2 70 70 WNW 5 7 30.09 1019 10 16 0.00 0.00
6:15 am 06:15 Clear 39 4 28 -2 65 65 NW 3 6 30.09 1019 10 16 0.00 0.00
6:35 am 06:35 Clear 39 4 28 -2 65 65 WNW 5 7 30.09 1019 10 16 0.00 0.00
6:55 am 06:55 Clear 39 4 28 -2 65 65 WNW 3 6 30.09 1019 10 16 0.00 0.00
7:15 am 07:15 Clear 37 3 28 -2 70 70 Calm 30.09 1019 10 16 0.00 0.00
7:35 am 07:35 Clear 39 4 28 -2 65 65 W 3 6 30.09 1019 9 14 0.00 0.00
7:55 am 07:55 Clear 39 4 30 -1 70 70 W 5 7 30.09 1019 10 16 0.00 0.00
8:15 am 08:15 Sunny 41 5 32 0 70 70 Calm 30.06 1018 10 16 0.00 0.00
8:35 am 08:35 Sunny 41 5 32 0 70 70 Calm 30.06 1018 10 16 0.00 0.00
8:55 am 08:55 Sunny 41 5 34 1 76 76 Calm 30.06 1018 10 16 0.00 0.00
9:15 am 09:15 Sunny 45 7 34 1 66 66 Calm 30.06 1018 10 16 0.00 0.00
9:35 am 09:35 Sunny 48 9 36 2 62 62 Calm 30.03 1017 10 16 0.00 0.00
9:55 am 09:55 Sunny 52 11 36 2 54 54 SSW 3 6 30.03 1017 10 16 0.00 0.00
10:15 am 10:15 Sunny 54 12 36 2 51 51 SSE 6 9 29.97 1015 10 16 0.00 0.00
10:35 am 10:35 Sunny 59 15 36 2 42 42 SE 7 11 29.97 1015 10 16 0.00 0.00
10:55 am 10:55 Sunny 63 17 36 2 37 37 SE 8 13 29.94 1014 10 16 0.00 0.00
11:15 am 11:15 Sunny 66 19 36 2 32 32 SE 10 17 29.94 1014 10 16 0.00 0.00
11:35 am 11:35 Sunny 70 21 36 2 29 29 SE 16 26 29.88 1012 10 16 0.00 0.00
11:55 am 11:55 Sunny 73 23 34 1 23 23 SSE 16 26 29.85 1011 10 16 0.00 0.00
12:15 pm 12:15 Sunny 73 23 32 0 22 22 SSE 17 28 29.85 1011 10 16 0.00 0.00
12:35 pm 12:35 Sunny 75 24 30 -1 19 19 SE 16 26 29.83 1010 10 16 0.00 0.00
12:55 pm 12:55 Sunny 77 25 32 0 19 19 SSE 17 28 29.83 1010 10 16 0.00 0.00
1:15 pm 13:15 Sunny 77 25 30 -1 18 18 SSE 17 28 29.83 1010 10 16 0.00 0.00
1:35 pm 13:35 Sunny 79 26 30 -1 17 17 SSE 16 26 29.80 1009 10 16 0.00 0.00
1:55 pm 13:55 Sunny 79 26 30 -1 17 17 SSE 17 28 29.80 1009 10 16 0.00 0.00
2:15 pm 14:15 Sunny 79 26 30 -1 17 17 S 17 28 29.77 1008 10 16 0.00 0.00
2:35 pm 14:35 Sunny 79 26 32 0 18 18 S 22 35 29.77 1008 10 16 0.00 0.00
2:55 pm 14:55 Sunny 81 27 30 -1 16 16 S 22 35 29.74 1007 10 16 0.00 0.00
3:15 pm 15:15 Sunny 81 27 32 0 17 17 SSE 20 31 29.74 1007 10 16 0.00 0.00
3:35 pm 15:35 Sunny 81 27 34 1 18 18 S 23 37 29.74 1007 10 16 0.00 0.00
3:55 pm 15:55 Sunny 81 27 32 0 17 17 S 24 39 29.74 1007 10 16 0.00 0.00
4:15 pm 16:15 Sunny 81 27 34 1 18 18 S 21 33 29.74 1007 10 16 0.00 0.00
4:35 pm 16:35 Sunny 79 26 34 1 20 20 S 20 31 29.77 1008 10 16 0.00 0.00
4:55 pm 16:55 Sunny 79 26 34 1 20 20 S 23 37 29.71 1006 10 16 0.00 0.00
5:15 pm 17:15 Sunny 79 26 34 1 20 20 S 20 31 29.71 1006 10 16 0.00 0.00
5:35 pm 17:35 Sunny 77 25 36 2 22 22 S 15 24 29.77 1008 10 16 0.00 0.00
5:55 pm 17:55 Sunny 75 24 36 2 24 24 SSE 10 17 29.77 1008 10 16 0.00 0.00
6:15 pm 18:15 Sunny 73 23 36 2 25 25 SSE 10 17 29.77 1008 10 16 0.00 0.00
6:35 pm 18:35 Sunny 70 21 36 2 29 29 SSE 9 15 29.80 1009 10 16 0.00 0.00
6:55 pm 18:55 Clear 66 19 36 2 32 32 SE 9 15 29.80 1009 10 16 0.00 0.00
7:15 pm 19:15 Clear 63 17 36 2 37 37 SSE 8 13 29.83 1010 10 16 0.00 0.00
7:35 pm 19:35 Clear 63 17 36 2 37 37 SE 7 11 29.83 1010 10 16 0.00 0.00
7:55 pm 19:55 Clear 63 17 36 2 37 37 SE 8 13 29.83 1010 10 16 0.00 0.00
8:15 pm 20:15 Clear 61 16 36 2 39 39 SE 9 15 29.83 1010 10 16 0.00 0.00
8:35 pm 20:35 Clear 59 15 36 2 42 42 SE 8 13 29.83 1010 10 16 0.00 0.00
8:55 pm 20:55 Clear 59 15 37 3 45 45 SE 7 11 29.83 1010 10 16 0.00 0.00
9:15 pm 21:15 Clear 52 11 32 0 47 47 E 3 6 29.85 1011 10 16 0.00 0.00
9:35 pm 21:35 Clear 52 11 34 1 50 50 E 3 6 29.85 1011 10 16 0.00 0.00
9:55 pm 21:55 Clear 55 13 36 2 47 47 SSE 6 9 29.85 1011 10 16 0.00 0.00
10:15 pm 22:15 Clear 55 13 37 3 51 51 S 6 9 29.85 1011 10 16 0.00 0.00
10:35 pm 22:35 Clear 55 13 37 3 51 51 S 9 15 29.85 1011 10 16 0.00 0.00
10:55 pm 22:55 Clear 57 14 39 4 51 51 S 8 13 29.85 1011 10 16 0.00 0.00
11:15 pm 23:15 Clear 59 15 39 4 48 48 SSW 8 13 29.83 1010 10 16 0.00 0.00
11:35 pm 23:35 Clear 59 15 41 5 51 51 SSW 12 19 29.83 1010 10 16 0.00 0.00
11:55 pm 23:55 Clear 61 16 41 5 48 48 SSW 13 20 29.83 1010 10 16 0.00 0.00

Powered by AerisWeather